OpenBCM V1.08-5-g2f4a (Linux)

Packet Radio Mailbox

IZ3LSV

[San Dona' di P. JN]

 Login: GUEST





  
I0OJJ  > KEPS     08.08.25 02:40l 343 Lines 16344 Bytes #141 (0) @ AMSAT
BID : ORB25220.1
Read: GUEST
Subj: 2Line Orbital Elements 25220.AMSAT
Path: IZ3LSV<IK6IHL<IK7NXU<HB9ON<HB9ON<PI8ZTM<VK2IO<VK2RZ<IR0AAB<I0OJJ
Sent: 250808/0025z @:I0OJJ.ITA.EU [Rome] obcm1.08-10-g596e
From: I0OJJ @ I0OJJ.ITA.EU (Gustavo)
To:   KEPS @ AMSAT
X-Info: This message was generated automatically


QST de W1STR

AMSAT Orbital Elements for Amateur Satellites in TLE Format
From Orbital Analysis Office
New England Sci-Tech STEM Education Center
Natick, MA August 08, 2025
To all radio amateurs


These element sets describe the orbits of various satellites 
in use by the amateur radio community. For details see:
www.amsat.org/keplerian-elements-formats/

A daily update of element sets is available at:
www.amsat.org/tle/daily-bulletin.txt
or without bulletin text:
www.amsat.org/tle/dailytle.txt


AO-07
1 07530U 74089B   25219.62883142 -.00000024  00000-0  13791-3 0  9997
2 07530 101.9955 224.5245 0012324  11.4678 104.4409 12.53690653321222
UO-11
1 14781U 84021B   25219.45074560  .00001208  00000-0  13240-3 0  9990
2 14781  97.7589 184.6740 0008859 134.0616 226.1333 14.89530134210404
AO-27
1 22825U 93061C   25219.44878079  .00000078  00000-0  47080-4 0  9992
2 22825  98.7331 281.2870 0007407 304.8765  55.1720 14.30815443662132
FO-29
1 24278U 96046B   25219.60491255  .00000015  00000-0  51112-4 0  9999
2 24278  98.5669 105.7130 0349756 189.5131 169.9267 13.53251318430758
NOAA-15
1 25338U 98030A   25219.56980635  .00000171  00000-0  87954-4 0  9998
2 25338  98.5338 243.2762 0010252 179.8900 180.2285 14.27008131416564
GO-32
1 25397U 98043D   25219.55995440  .00000056  00000-0  44120-4 0  9996
2 25397  98.9751 199.9232 0002183  62.0712 298.0687 14.24327574406687
ISS
1 25544U 98067A   25219.51113802  .00006757  00000-0  12461-3 0  9992
2 25544  51.6349  52.6854 0001421 162.5532 197.5506 15.50378521523125
NO-44
1 26931U 01043C   25219.60392760  .00000112  00000-0  72797-4 0  9991
2 26931  67.0528 335.2290 0006570 276.5295  83.5059 14.31758973245558
SO-50
1 27607U 02058C   25219.60975105  .00000889  00000-0  12745-3 0  9996
2 27607  64.5536  18.3003 0062588 321.3454  38.3179 14.81766167217973
CO-55
1 27844U 03031E   25219.56080492  .00000273  00000-0  13786-3 0  9995
2 27844  98.6772 227.0761 0010067  23.5008 336.6629 14.24035135147031
CO-57
1 27848U 03031J   25219.46658140  .00000231  00000-0  12099-3 0  9999
2 27848  98.6799 226.9439 0010293  40.1437 320.0500 14.23364339146748
RS-22
1 27939U 03042A   25219.66239823  .00001023  00000-0  16954-3 0  9991
2 27939  98.3330  30.5612 0011440 176.7466 275.3805 14.72473183169390
CO-58
1 28895U 05043F   25219.62528128  .00001444  00000-0  24240-3 0  9995
2 28895  98.2572   4.7430 0015600 118.0295 242.2492 14.71184834 55627
CO-65
1 32785U 08021C   25219.59204922  .00004842  00000-0  34593-3 0  9993
2 32785  97.7896 191.2251 0010158  24.1084 336.0615 15.04936119937954
CO-66
1 32791U 08021J   25219.38667493  .00010806  00000-0  50558-3 0  9999
2 32791  97.7300 200.8004 0002488   4.6972 355.4285 15.19936944939424
RS-30
1 32953U 08025A   25219.63448888  .00000014  00000-0  30503-4 0  9995
2 32953  82.5035 190.4540 0017938 278.1334  81.7711 12.43166932780733
NOAA-19
1 33591U 09005A   25218.60666389  .00000053  00000-0  52302-4 0  9991
2 33591  98.9940 283.6279 0013566 195.2989 164.7775 14.13394947850042
SRMSAT
1 37841U 11058D   25219.22021025  .00000382  00000-0  63899-4 0  9993
2 37841  19.9708 159.6866 0011630 350.6694 153.4888 14.11450513713401
ZACUBE-1
1 39417U 13066B   25219.61188219  .00003367  00000-0  29163-3 0  9998
2 39417  97.7819 176.3425 0043038 212.9221 146.9319 14.97109410633744
Delfi-N3xt
1 39428U 13066N   25219.57567932  .00004686  00000-0  47247-3 0  9996
2 39428  97.8312 136.5837 0084240 164.9925 195.3821 14.88962698627853
GOMX-1
1 39430U 13066Q   25219.59232834  .00001548  00000-0  24550-3 0  9997
2 39430  97.6780  74.6238 0132291   4.2256 356.0034 14.67846026623887
LO-74
1 39440U 13066AA  25219.56853169  .00003680  00000-0  37131-3 0  9993
2 39440  97.8506 163.7398 0061135 346.9703  12.9932 14.90333421630221
AO-73
1 39444U 13066AE  25219.47902021  .00004515  00000-0  33415-3 0  9998
2 39444  97.7857 181.6582 0041423 183.7417 176.3504 15.02994324632438
DTUSAT-2
1 40030U 14033W   25219.45632831  .00005536  00000-0  35498-3 0  9990
2 40030  98.0590 194.1635 0008063 209.4908 150.5866 15.08931827605273
EO-80
1 40032U 14033Y   25219.47359389  .00006355  00000-0  40585-3 0  9991
2 40032  98.0471 193.7543 0009400 151.7076 208.4663 15.09003812605258
LILACSAT-2
1 40908U 15049K   25219.62810244  .00011114  00000-0  27924-3 0  9991
2 40908  97.5044 241.4432 0007200 315.6545  44.4123 15.40129706547313
IO-86
1 40931U 15052B   25151.18580782  .00001310  00000-0  87238-4 0  9990
2 40931   6.0001  24.1284 0012872 339.0660  20.8941 14.78806187523042
Horyu-4
1 41340U 16012D   25219.33992465  .00022550  00000-0  55817-3 0  9995
2 41340  30.9967  96.1281 0007600 315.4441  44.5594 15.39162639521846
Lapan A3
1 41603U 16040E   25219.62277965  .00003545  00000-0  12348-3 0  9996
2 41603  97.1384 221.9304 0012587  63.9548 296.2987 15.30217571506812
CAS-2T
1 41847U 16066G   25219.45963785  .00000667  00000-0  10402-3 0  9998
2 41847  98.4177 293.4019 0345540   0.5680 359.5837 14.43638802459513
CAS-4B
1 42759U 17034B   25219.61292626  .00105363  00000-0  77273-3 0  9992
2 42759  43.0057 328.0291 0022644 342.7416  17.2681 15.71733165451866
CAS-4A
1 42761U 17034D   25219.58743191  .00115245  00000-0  77457-3 0  9993
2 42761  43.0092 324.5408 0023522 347.6516  12.3774 15.73700815451889
TechnoSat
1 42829U 17042E   25219.40837628  .00003508  00000-0  27079-3 0  9990
2 42829  97.3949  25.3076 0017902  81.8503 278.4752 15.02050574439555
AO-91
1 43017U 17073E   25219.56066973  .00007373  00000-0  37348-3 0  9992
2 43017  97.5176  88.8467 0168776 326.1554  32.8990 15.05653461418082
S-Net D
1 43186U 18014G   25219.59483875  .00004462  00000-0  26114-3 0  9997
2 43186  97.5564 121.8993 0009829  32.8992 327.2848 15.12312192411292
S-Net B
1 43187U 18014H   25219.60101449  .00004710  00000-0  27554-3 0  9999
2 43187  97.5569 121.8800 0010371  27.7689 332.4093 15.12292284411294
S-Net A
1 43188U 18014J   25219.59502226  .00004460  00000-0  26097-3 0  9999
2 43188  97.5577 122.0319 0010293  28.6118 331.5676 15.12317780411298
S-Net C
1 43189U 18014K   25219.27273195  .00004666  00000-0  27301-3 0  9992
2 43189  97.5593 121.7371 0011560  21.0958 339.0747 15.12285219409793
Ten-Koh
1 43677U 18084G   25219.47198115  .00001956  00000-0  15906-3 0  9998
2 43677  98.0836  34.0588 0008779  74.7663 285.4530 15.00808415369079
PO-101
1 43678U 18084H   25219.61967439  .00001733  00000-0  14998-3 0  9991
2 43678  98.1055  38.0157 0008611  91.0878 269.1330 14.98551816369225
QO-100
1 43700U 18090A   25219.54835222  .00000000  00000-0  00000-0 0  9992
2 43700   0.0196 101.9291 0001278  45.8962  31.7346  1.00273679 24530
MinXSS-2
1 43758U 18099A   25219.45798133  .00014697  00000-0  55089-3 0  9990
2 43758  97.4990 285.7359 0009982 311.1090  48.9286 15.27313454365959
AO-95
1 43770U 18099N   25219.39452379  .00007718  00000-0  38071-3 0  9994
2 43770  97.4881 276.8511 0010395  16.7124 343.4450 15.18146299365473
RANGE-A
1 43773U 18099R   25219.60515642  .00004400  00000-0  27766-3 0  9998
2 43773  97.4449 266.2990 0010803 357.7890   2.3289 15.09554818365125
MOVE-II
1 43780U 18099Y   25194.80194206  .15913345  26116-5  37118-3 0  9995
2 43780  97.4526 273.8800 0018736 270.1080  89.8075 16.44566529363241
SNUSat 2
1 43782U 18099AA  25219.58901695  .00005929  00000-0  31755-3 0  9992
2 43782  97.4560 273.3077 0010425 314.0888  45.9486 15.15342468365436
SnugLite
1 43784U 18099AC  25219.60944564  .00007508  00000-0  36736-3 0  9998
2 43784  97.4376 273.0137 0002067 331.6998  28.4123 15.18481712365597
ITASat 1
1 43786U 18099AE  25219.39746167  .00004987  00000-0  28103-3 0  9992
2 43786  97.4530 272.4525 0014041  10.2010 349.9504 15.13570208365357
EAGLET 1
1 43790U 18099AJ  25219.42445959  .00004002  00000-0  25340-3 0  9994
2 43790  97.4730 272.2346 0011558 355.2185   4.8932 15.09478759364947
ESEO
1 43792U 18099AL  25219.59901660  .00001724  00000-0  13297-3 0  9996
2 43792  97.4451 264.8678 0011131 326.2683  33.7833 15.02806852364686
CSIM
1 43793U 18099AM  25219.61233467  .02527238  24763-5  13326-2 0  9997
2 43793  97.4632 303.1019 0017108 278.2066  81.7282 16.19746906367007
JO-97
1 43803U 18099AX  25219.12131406  .00010505  00000-0  46309-3 0  9998
2 43803  97.4629 277.7055 0005837 304.2528  55.8154 15.21970478365676
Suomi 100
1 43804U 18099AY  25219.10150898  .00008978  00000-0  42735-3 0  9993
2 43804  97.4694 276.8083 0010636 307.4266  52.6000 15.19338215365586
ISAT
1 43879U 18111D   25219.51985139  .00019580  00000-0  63658-3 0  9997
2 43879  97.5908 135.2823 0007747   7.9964 352.1399 15.31913329362713
UWE-4
1 43880U 18111E   25219.53241223  .00014297  00000-0  53417-3 0  9992
2 43880  97.5854 133.3422 0011551  15.4199 344.7390 15.27412443362625
Sparrow
1 43881U 18111F   25219.32160081  .00020261  00000-0  63131-3 0  9994
2 43881  97.6062 138.1934 0007875  49.5152 310.6775 15.33267428362784
Prox-1
1 44339U 19036A   25219.19119325  .00009917  00000-0  12178-2 0  9999
2 44339  23.9975  36.5020 0007860  20.3922 339.6888 14.80979548326714
SONATE
1 44400U 19038Q   25185.47540524  .09032085  27445-5  31847-3 0  9995
2 44400  97.6609 216.4776 0012462 246.7970 113.2018 16.43248376333575
Taurus 1
1 44530U 19059C   25219.62373926  .00005465  00000-0  99633-3 0  9990
2 44530  98.6124   1.8609 0009139 205.7616 154.3132 14.66432610312593
Duchifat 3
1 44854U 19089C   25219.54472591  .00054893  00000-0  89755-3 0  9994
2 44854  36.9422 338.9978 0005049  67.8573 292.2721 15.51479250312161
TO-108
1 44881U 19093C   25219.56022094  .00000796  00000-0  97755-4 0  9993
2 44881  97.7897 293.9722 0014675  42.7881 317.4474 14.85703886304839
